[[{"header":{"parameterUnit":"m.s-1","parameterCategory":2,"la1":30.2991,"la2":30.254,"lo1":-89.0895,"lo2":-89.0444,"dx":0.0017,"dy":0.0017,"nx":28,"ny":28,"refTime":"2023-02-06T15:00:00:Z","depth":"0","parameterNumber":2,"parameterNumberName":"U-component_of_CURRENTS"},"data":[0,0,0,0,0,0,0,0,0,0,0,0,0,0,0,0,0,0,0,0,0,0,0,0,0,0,0,0,0,0,0,0,0,0,0,0,0,0,0,0,0,0,0,0,0,0,0,0,0,0,0,0,0,0,0,0,0,0,0.2236,0.2236,0,0.2227,0.2226,0.2226,0.2234,0.2235,0.2235,0.2236,0.2308,0.2309,0.231,0,0,0,0,0,0,0,0,0,0,0,0,0,0.2269,0.2268,0.2236,0.2236,0.2237,0.2227,0.2226,0.2226,0.2234,0.2235,0.2235,0.2236,0.2307,0.2309,0.231,0,0,0,0,0,0,0,0,0,0,0,0,0,0.2254,0.2267,0.2236,0.2241,0.2242,0.2227,0.2226,0.2226,0.2234,0.2235,0.2236,0.2236,0.2307,0.2309,0.2311,0.2307,0,0,0.2317,0.2318,0,0,0,0,0,0,0,0,0.2255,0.2253,0.224,0.2241,0.2241,0.2234,0.2264,0.2258,0.2234,0.2234,0.2236,0.2237,0.2292,0.2295,0.2287,0.231,0.2314,0.2317,0.2318,0.2319,0.232,0,0,0,0,0,0,0,0.2256,0.2253,0.223,0.224,0.2241,0.2246,0.2245,0.2262,0.2258,0.2234,0.2236,0.2238,0.2292,0.2285,0.2289,0.2315,0.2317,0.2319,0.232,0.2321,0.2381,0.2381,0,0,0,0,0,0,0.226,0.2254,0.2231,0.223,0.2253,0.2245,0.2243,0.2234,0.2256,0.2261,0.2237,0.2238,0.2281,0.2286,0.2292,0.2315,0.2319,0.2321,0.2323,0.238,0.2381,0.2381,0,0,0,0,0,0,0.2261,0.2258,0.2231,0.2244,0.2242,0.2244,0.2233,0.2233,0.2225,0.2258,0.2263,0.2229,0.2282,0.2289,0.2307,0.2318,0.2322,0.2324,0.238,0.2381,0.2381,0.2347,0,0,0,0,0,0,0.2261,0.2257,0.2249,0.2244,0.2241,0.2222,0.2233,0.2233,0.2227,0.2228,0.2253,0.226,0.2283,0.2303,0.2309,0.2321,0.2326,0.238,0.238,0.2381,0.2348,0.2346,0.2345,0,0,0,0,0,0.2262,0.2248,0.2248,0.2245,0.223,0.2221,0.222,0.2223,0.2225,0.2219,0.2237,0.226,0.2312,0.2304,0.2311,0.2324,0.2379,0.238,0.2381,0.2348,0.2346,0.2345,0,0,0,0,0,0,0.2257,0.2247,0.2247,0.223,0.2227,0.2224,0.2217,0.2217,0.2222,0.2226,0.2254,0.2263,0.229,0.2307,0.2298,0.2344,0.2353,0.2355,0.2326,0.2325,0.2324,0.2337,0.2328,0,0,0,0,0,0.2251,0.2236,0.2233,0.2219,0.2216,0.2214,0.221,0.2212,0.2218,0.2219,0.2236,0.2263,0.2296,0.2308,0.2337,0.235,0.2381,0.2366,0.2365,0.2364,0.238,0.2433,0.2438,0.2384,0.2384,0.2384,0,0,0.2246,0.2238,0.223,0.2217,0.2212,0.2204,0.2212,0.2204,0.2199,0.2229,0.2226,0.2259,0.23,0.2323,0.2337,0.2337,0.239,0.2365,0.2363,0.2381,0.2434,0.244,0.2445,0.2384,0.2384,0.2384,0,0,0.2226,0.2219,0.22,0.2195,0.2189,0.2193,0.2189,0.2184,0.2185,0.2186,0.2219,0.2255,0.2278,0.2319,0.2342,0.235,0.2385,0.2359,0.2358,0.2408,0.2413,0.2418,0.2438,0.2445,0.2353,0.2353,0.2353,0,0.2225,0.2195,0.2195,0.2178,0.217,0.2186,0.2168,0.2173,0.2174,0.2179,0.2184,0.2249,0.2282,0.2333,0.2344,0.2349,0.2373,0.2357,0.2407,0.2412,0.2418,0.2437,0.2445,0.2351,0.2351,0.2351,0.2352,0,0.2189,0.2169,0.2158,0.2142,0.2136,0.2124,0.2133,0.2133,0.214,0.2149,0.2189,0.2236,0.2278,0.2299,0.2326,0.2387,0.2388,0.2401,0.2409,0.2422,0.244,0.2449,0.2349,0.2349,0.235,0.235,0,0,0.2185,0.2141,0.2138,0.2119,0.2114,0.2104,0.2105,0.211,0.2116,0.214,0.2154,0.2227,0.226,0.2292,0.2336,0.2389,0.2444,0.2413,0.2417,0.2429,0.2538,0.2474,0.2478,0.2467,0.2469,0.247,0.2525,0,0.216,0.2112,0.2099,0.2066,0.2046,0.2057,0.2056,0.2067,0.2087,0.2109,0.2175,0.2212,0.2253,0.2282,0.2343,0.2428,0.2472,0.2428,0.2529,0.2532,0.2471,0.2489,0.2368,0.2402,0.2534,0.2536,0.2537,0,0.2133,0.2103,0.2056,0.2022,0.2015,0.2004,0.2008,0.2009,0.2056,0.2072,0.2128,0.2177,0.2267,0.2297,0.244,0.2409,0.2476,0.2536,0.254,0.2506,0.2486,0.2418,0.2414,0.2166,0.2551,0.255,0.2549,0,0.2126,0.2076,0.2034,0.202,0.1992,0.1979,0.1975,0.2,0.1999,0.2058,0.207,0.2173,0.2219,0.2335,0.2441,0.2452,0.2586,0.2608,0.2609,0.2604,0.2536,0.2521,0.2306,0.2711,0.2711,0.2711,0.2711,0,0.2106,0.2076,0.2025,0.2003,0.1964,0.1956,0.1937,0.1951,0.1976,0.198,0.2055,0.2082,0.2236,0.2318,0.2432,0.2532,0.257,0.262,0.2624,0.2516,0.2499,0.231,0.2216,0.2713,0.2712,0.2712,0.2712,0,0.2105,0.2072,0.2022,0.1973,0.1956,0.1932,0.1896,0.1886,0.1917,0.193,0.1945,0.2023,0.2123,0.2251,0.2423,0.2493,0.2488,0.2633,0.2475,0.246,0.2237,0.2149,0.2021,0.1995,0.266,0.2659,0.2658,0,0.2095,0.2067,0.1996,0.1954,0.1927,0.1887,0.1856,0.1861,0.185,0.1889,0.1891,0.1972,0.202,0.221,0.2364,0.252,0.2402,0.2472,0.2483,0.22,0.2107,0.2038,0.2023,0.2372,0.2369,0.2366,0.2364,0,0.2065,0.204,0.199,0.1907,0.1855,0.1807,0.1767,0.1754,0.1767,0.1775,0.1797,0.1837,0.2001,0.2079,0.2243,0.2349,0.2244,0.2423,0.2181,0.1904,0.1769,0.1752,0.2333,0.2341,0.2343,0.2345,0.2346,0.2347,0.2029,0.1984,0.1901,0.1823,0.1767,0.1708,0.1655,0.1641,0.1614,0.1599,0.1679,0.17,0.1765,0.1992,0.2068,0.1998,0.211,0.1918,0.1849,0.1817,0.1729,0.2238,0.2217,0.2218,0.222,0.2221,0.2222,0,0.1926,0.1873,0.1809,0.1693,0.161,0.1614,0.1562,0.1514,0.1464,0.1503,0.1506,0.1479,0.1474,0.1542,0.1509,0.1389,0.1453,0.1281,0.112,0.116,0.1634,0.155,0.1318,0.1318,0.1318,0.1319,0.1319,0.1319,0.1853,0.1747,0.1711,0.1542,0.1479,0.1362,0.1327,0.1298,0.1313,0.1251,0.122,0.1217,0.1067,0.0768,0.0587,0.0645,0.0541,0.0516,0.0543,0.0759,0.0811,0.0861,0.0754,0.0359,0.0358,0.0061,0.0057,0.0054]},{"header":{"parameterUnit":"m.s-1","parameterCategory":2,"la1":30.2991,"la2":30.254,"lo1":-89.0895,"lo2":-89.0444,"dx":0.0017,"dy":0.0017,"nx":28,"ny":28,"refTime":"2023-02-06T15:00:00:Z","depth":"0","parameterNumber":3,"parameterNumberName":"V-component_of_CURRENTS"},"data":[0,0,0,0,0,0,0,0,0,0,0,0,0,0,0,0,0,0,0,0,0,0,0,0,0,0,0,0,0,0,0,0,0,0,0,0,0,0,0,0,0,0,0,0,0,0,0,0,0,0,0,0,0,0,0,0,0,0,0.007,0.0069,0,0.002,0.002,0.002,-0.0007,-0.0007,-0.0007,-0.0008,-0.0039,-0.004,-0.004,0,0,0,0,0,0,0,0,0,0,0,0,0,0.0152,0.0151,0.007,0.0069,0.0068,0.002,0.002,0.002,-0.0006,-0.0007,-0.0007,-0.0008,-0.0039,-0.004,-0.004,0,0,0,0,0,0,0,0,0,0,0,0,0,0.0115,0.015,0.0071,0.0047,0.0044,0.002,0.002,0.002,-0.0006,-0.0007,-0.0008,-0.0008,-0.0039,-0.004,-0.004,-0.0032,0,0,-0.0042,-0.0043,0,0,0,0,0,0,0,0,0.0117,0.0112,0.0051,0.0048,0.0045,0.0009,0.0037,0.0002,-0.0006,0.0017,-0.0008,-0.0008,-0.0024,-0.0026,-0.0028,-0.0034,-0.0035,-0.0042,-0.0043,-0.0043,-0.0043,0,0,0,0,0,0,0,0.0119,0.0114,0.0055,0.005,0.0046,0.0041,0.0035,0.0031,0.0004,0.0015,0.0012,0.0,-0.0025,-0.0027,-0.0029,-0.0035,-0.0042,-0.0043,-0.0043,-0.0044,0.0014,0.0016,0,0,0,0,0,0,0.0117,0.0116,0.0056,0.0053,0.0075,0.004,0.0034,0.0024,0.0004,-0.0001,0.0001,-0.0001,-0.0026,-0.0028,-0.003,0.001,-0.0043,-0.0044,-0.0044,0.0012,0.0015,0.0017,0,0,0,0,0,0,0.0119,0.0113,0.0058,0.008,0.0072,0.0038,0.0029,0.0024,0.0018,-0.0008,-0.0012,-0.0001,-0.0027,-0.0029,-0.0009,0.0008,-0.0044,-0.0045,0.001,0.0013,0.0016,0.0071,0,0,0,0,0,0,0.0122,0.0114,0.0113,0.008,0.0071,0.0051,0.0029,0.0023,0.001,0.0007,-0.0011,-0.0014,-0.0027,-0.0007,-0.001,0.0006,-0.0045,0.0008,0.0011,0.0015,0.0067,0.0076,0.0083,0,0,0,0,0,0.0125,0.0123,0.0113,0.0106,0.0069,0.0051,0.0047,0.0023,0.001,0.0015,0.0019,-0.0014,0.0014,-0.0006,-0.0009,0.0006,0.0006,0.001,0.0015,0.0063,0.0074,0.0083,0,0,0,0,0,0,0.0154,0.0118,0.0108,0.0093,0.0077,0.0045,0.0043,0.0026,0.0031,0.0031,0.0011,0.0009,0.0034,0.002,-0.0002,0.0038,0.0004,0.0008,0.0042,0.0052,0.006,0.0052,-0.0046,0,0,0,0,0,0.016,0.0152,0.0119,0.0111,0.0102,0.0075,0.0065,0.005,0.0042,0.0042,0.0032,0.0034,0.0051,0.0051,0.0058,0.0076,0.0055,0.0086,0.0094,0.0101,0.0096,0.0093,0.0099,0.0031,0.0031,0.0031,0,0,0.0167,0.0148,0.0142,0.0117,0.0102,0.0102,0.0069,0.0057,0.0067,0.004,0.0059,0.0061,0.0065,0.0093,0.0102,0.008,0.0114,0.0107,0.0112,0.0103,0.0098,0.0104,0.011,0.0034,0.0034,0.0033,0,0,0.0179,0.0162,0.0161,0.0154,0.0131,0.012,0.0118,0.0093,0.0095,0.0114,0.0107,0.0123,0.0133,0.0143,0.015,0.0208,0.0161,0.0208,0.0234,0.0232,0.0237,0.024,0.0232,0.0234,0.0207,0.0207,0.0207,0,0.0186,0.0184,0.016,0.0162,0.0161,0.0132,0.014,0.0141,0.0131,0.0144,0.0129,0.0164,0.016,0.0201,0.0222,0.0223,0.0209,0.0193,0.024,0.0243,0.0246,0.0236,0.0238,0.021,0.021,0.0209,0.0209,0,0.0197,0.0203,0.0203,0.0201,0.0202,0.0203,0.0198,0.0208,0.0205,0.0204,0.0239,0.024,0.0256,0.0263,0.0257,0.0286,0.0266,0.0252,0.0208,0.0256,0.0243,0.0244,0.0215,0.0214,0.0213,0.0212,0,0,0.0185,0.0207,0.0208,0.0225,0.0224,0.0225,0.0255,0.0273,0.0297,0.0294,0.0327,0.0349,0.0334,0.0342,0.0334,0.0328,0.0339,0.0296,0.0294,0.0274,0.0327,0.0315,0.0315,0.0328,0.0328,0.0329,0.0312,0,0.02,0.0227,0.0233,0.0267,0.0281,0.0285,0.0319,0.0335,0.0349,0.0376,0.0377,0.0403,0.037,0.0379,0.037,0.0356,0.0343,0.0345,0.0294,0.0292,0.0265,0.0316,0.0389,0.0379,0.0312,0.0312,0.0312,0,0.0205,0.0225,0.0264,0.0313,0.0319,0.0338,0.0386,0.0412,0.0446,0.046,0.0474,0.0469,0.0478,0.0436,0.0412,0.0412,0.037,0.0344,0.0343,0.0309,0.0283,0.0321,0.0383,0.0408,0.0313,0.0313,0.0313,0,0.0208,0.0248,0.0287,0.0299,0.0344,0.037,0.0394,0.0434,0.0464,0.0506,0.0527,0.0533,0.0535,0.0494,0.0443,0.0426,0.0407,0.0378,0.0325,0.0323,0.0363,0.0364,0.0431,0.0347,0.0347,0.0347,0.0347,0,0.022,0.0247,0.0292,0.0309,0.0357,0.0383,0.0434,0.0466,0.0511,0.055,0.0561,0.0586,0.0545,0.053,0.0471,0.0412,0.0428,0.0335,0.0323,0.0386,0.0389,0.0393,0.0397,0.0346,0.0346,0.0347,0.0347,0,0.0214,0.0247,0.0286,0.0339,0.0358,0.0387,0.0446,0.0484,0.0528,0.058,0.0593,0.0623,0.0612,0.0571,0.0515,0.0448,0.0421,0.0363,0.0438,0.0433,0.039,0.0395,0.0434,0.0451,0.03,0.03,0.0299,0,0.0213,0.0236,0.0295,0.0319,0.0341,0.0387,0.0425,0.0483,0.0525,0.0598,0.0625,0.0642,0.0659,0.0594,0.0519,0.044,0.0432,0.0413,0.0387,0.0408,0.0404,0.0417,0.043,0.0467,0.0468,0.0469,0.047,0,0.0203,0.0227,0.0261,0.031,0.0351,0.0405,0.0462,0.0499,0.0571,0.0614,0.0668,0.0691,0.0665,0.0653,0.0563,0.0494,0.0477,0.0425,0.0445,0.054,0.0564,0.0568,0.0448,0.0478,0.0477,0.0477,0.0476,0.0476,0.0185,0.021,0.0257,0.0305,0.0359,0.0429,0.0466,0.0525,0.0593,0.0659,0.0684,0.0723,0.0774,0.0682,0.0596,0.0541,0.0509,0.0513,0.0516,0.0525,0.0556,0.0442,0.0453,0.0452,0.0452,0.0451,0.045,0,0.016,0.0205,0.025,0.0318,0.0375,0.0411,0.0497,0.0525,0.0589,0.0649,0.0685,0.0792,0.0833,0.0808,0.0783,0.0689,0.0651,0.0639,0.0703,0.0706,0.0613,0.0636,0.0693,0.0693,0.0693,0.0693,0.0693,0.0693,0.0152,0.019,0.023,0.0319,0.0372,0.0439,0.0486,0.052,0.0565,0.0631,0.0692,0.0746,0.0868,0.099,0.0933,0.0861,0.0838,0.0804,0.0761,0.073,0.0719,0.0709,0.0733,0.0809,0.0809,0.0901,0.0902,0.0902]}],[{"header":{"parameterUnit":"m.s-1","parameterCategory":2,"la1":30.2991,"la2":30.254,"lo1":-89.0895,"lo2":-89.0444,"dx":0.0017,"dy":0.0017,"nx":28,"ny":28,"refTime":"2023-02-06T15:00:00:Z","depth":"2","parameterNumber":2,"parameterNumberName":"U-component_of_CURRENTS"},"data":[0,0,0,0,0,0,0,0,0,0,0,0,0,0,0,0,0,0,0,0,0,0,0,0,0,0,0,0,0,0,0,0,0,0,0,0,0,0,0,0,0,0,0,0,0,0,0,0,0,0,0,0,0,0,0,0,0,0,0.2129,0.2128,0,0.2076,0.2075,0.2074,0.2116,0.2117,0.2119,0.2121,0.2198,0.2198,0.2198,0,0,0,0,0,0,0,0,0,0,0,0,0,0.2262,0.226,0.2129,0.2128,0.2128,0.2076,0.2075,0.2074,0.2115,0.2117,0.212,0.2122,0.2198,0.2198,0.2198,0,0,0,0,0,0,0,0,0,0,0,0,0,0.2206,0.2259,0.2129,0.2142,0.2143,0.2076,0.2075,0.2074,0.2115,0.2117,0.212,0.2123,0.2197,0.2198,0.2198,0.2147,0,0,0.22,0.22,0,0,0,0,0,0,0,0,0.2209,0.2201,0.2141,0.2141,0.2142,0.2105,0.215,0.2105,0.2114,0.2125,0.2121,0.2124,0.2177,0.2179,0.2161,0.215,0.2154,0.22,0.22,0.2201,0.2201,0,0,0,0,0,0,0,0.2213,0.2203,0.2107,0.214,0.2141,0.215,0.2145,0.2141,0.2138,0.2124,0.2127,0.2121,0.2179,0.216,0.2163,0.2155,0.22,0.2201,0.2201,0.2201,0.22,0.22,0,0,0,0,0,0,0.2217,0.2206,0.2109,0.2106,0.2183,0.2145,0.2139,0.2114,0.2136,0.2141,0.2119,0.2123,0.2158,0.2163,0.2166,0.2224,0.2201,0.2201,0.2201,0.2201,0.22,0.22,0,0,0,0,0,0,0.2219,0.2208,0.2111,0.2157,0.2146,0.214,0.2111,0.2111,0.2142,0.213,0.2138,0.2155,0.216,0.2166,0.2186,0.2223,0.2201,0.2202,0.2201,0.2201,0.22,0.2264,0,0,0,0,0,0,0.2223,0.2208,0.2217,0.2156,0.2143,0.2102,0.2108,0.2108,0.2131,0.2138,0.2163,0.217,0.2163,0.2185,0.2186,0.2224,0.2202,0.2201,0.2201,0.22,0.2263,0.2266,0.2269,0,0,0,0,0,0.2228,0.2208,0.2217,0.2207,0.2145,0.2102,0.2097,0.2102,0.2131,0.2142,0.2152,0.2172,0.2183,0.2184,0.2186,0.2225,0.2202,0.2201,0.22,0.2261,0.2265,0.2269,0,0,0,0,0,0,0.2264,0.2208,0.2218,0.2183,0.2166,0.211,0.2119,0.2125,0.2137,0.2163,0.2162,0.2168,0.2199,0.219,0.2192,0.2217,0.2197,0.2197,0.2243,0.2247,0.225,0.2269,0.2203,0,0,0,0,0,0.2276,0.2251,0.221,0.2188,0.2185,0.2166,0.2161,0.2165,0.2153,0.2164,0.2177,0.2186,0.2183,0.2202,0.2195,0.2209,0.2204,0.2233,0.2236,0.2239,0.2252,0.2251,0.2256,0.2197,0.2197,0.2197,0,0,0.228,0.225,0.2237,0.2197,0.2186,0.2174,0.2171,0.217,0.2176,0.2169,0.2201,0.2202,0.2186,0.2199,0.2214,0.221,0.2253,0.2239,0.2242,0.2253,0.2251,0.2257,0.2262,0.2197,0.2197,0.2197,0,0,0.2264,0.2258,0.2238,0.2229,0.2222,0.2207,0.2221,0.22,0.2219,0.223,0.2227,0.2245,0.225,0.2241,0.2235,0.2248,0.2265,0.2261,0.2307,0.2305,0.2311,0.2316,0.2323,0.2328,0.227,0.227,0.227,0,0.2286,0.2248,0.223,0.2218,0.2219,0.223,0.2227,0.2228,0.2223,0.2238,0.2258,0.2262,0.2263,0.2265,0.2278,0.2262,0.2269,0.23,0.2313,0.2317,0.2321,0.2327,0.2332,0.2273,0.2273,0.2272,0.2272,0,0.2243,0.2244,0.2234,0.2224,0.2224,0.2224,0.2224,0.225,0.2286,0.2286,0.232,0.231,0.2318,0.2322,0.2313,0.2341,0.2341,0.2315,0.2312,0.2332,0.2336,0.234,0.2277,0.2276,0.2275,0.2275,0,0,0.221,0.2209,0.2213,0.2231,0.2238,0.2227,0.2253,0.2266,0.2296,0.2322,0.2348,0.2358,0.2382,0.2376,0.2372,0.2383,0.2423,0.2382,0.2381,0.2406,0.2442,0.2401,0.2401,0.2414,0.2414,0.2415,0.2437,0,0.2199,0.2192,0.2188,0.2206,0.2212,0.2239,0.2254,0.2278,0.2312,0.2341,0.2359,0.2381,0.2392,0.2415,0.243,0.2416,0.2436,0.242,0.2404,0.2404,0.2379,0.2404,0.2048,0.2035,0.2441,0.2441,0.2442,0,0.2161,0.2167,0.2185,0.2218,0.2225,0.2243,0.2294,0.2308,0.2347,0.2373,0.2413,0.2426,0.2457,0.2456,0.2477,0.2476,0.2479,0.2468,0.2468,0.2412,0.237,0.2076,0.2026,0.2448,0.2447,0.2447,0.2446,0,0.2151,0.2166,0.2193,0.2202,0.2234,0.2267,0.2295,0.2336,0.2351,0.2408,0.2427,0.2464,0.2484,0.2498,0.2509,0.2503,0.2521,0.2492,0.2455,0.2452,0.2135,0.2103,0.2509,0.2509,0.2509,0.2509,0.2508,0,0.213,0.2159,0.2204,0.2219,0.2263,0.2285,0.2332,0.2366,0.2397,0.2411,0.2458,0.2462,0.2501,0.2515,0.2522,0.2511,0.2533,0.2476,0.2458,0.2148,0.2118,0.2459,0.2453,0.2509,0.2509,0.2509,0.2509,0,0.213,0.2153,0.2192,0.2243,0.2264,0.2306,0.235,0.2365,0.2411,0.2429,0.2448,0.2471,0.2495,0.2523,0.2534,0.2515,0.2507,0.2496,0.2147,0.2088,0.2437,0.2434,0.2453,0.2452,0.2451,0.245,0.2449,0,0.2133,0.2153,0.2218,0.2236,0.2273,0.2325,0.2343,0.2382,0.2388,0.2417,0.2411,0.2449,0.2433,0.2444,0.2364,0.2352,0.249,0.209,0.2012,0.2453,0.2433,0.2431,0.243,0.1607,0.16,0.1594,0.1589,0,0.2141,0.2178,0.2206,0.2245,0.2279,0.2297,0.2334,0.2328,0.2357,0.2353,0.2336,0.2322,0.2271,0.2052,0.2053,0.2017,0.2065,0.197,0.248,0.1705,0.1665,0.1644,0.1667,0.1534,0.1539,0.1543,0.1546,0.1548,0.2158,0.2181,0.221,0.2249,0.2261,0.2258,0.2262,0.225,0.223,0.2127,0.2171,0.1939,0.1871,0.16,0.1605,0.1578,0.1751,0.165,0.1663,0.1685,0.1612,0.1575,0.1413,0.1417,0.1421,0.1425,0.1428,0,0.2149,0.2175,0.2199,0.2221,0.2205,0.2233,0.2227,0.2152,0.2084,0.1877,0.1786,0.1327,0.1137,0.1109,0.0916,0.1005,0.0966,0.1029,0.0889,0.094,0.0986,0.0876,0.0483,0.0482,0.0481,0.048,0,0,0.2137,0.2147,0.2157,0.2145,0.2159,0.2132,0.2118,0.1968,0.1784,0.1377,0.1044,0.0937,0.0895,0.0576,0.063,0.0515,0.0746,0.0501,0.1223,0.1096,0.1142,0.1275,0.1154,0,0,0,0,0]},{"header":{"parameterUnit":"m.s-1","parameterCategory":2,"la1":30.2991,"la2":30.254,"lo1":-89.0895,"lo2":-89.0444,"dx":0.0017,"dy":0.0017,"nx":28,"ny":28,"refTime":"2023-02-06T15:00:00:Z","depth":"2","parameterNumber":3,"parameterNumberName":"V-component_of_CURRENTS"},"data":[0,0,0,0,0,0,0,0,0,0,0,0,0,0,0,0,0,0,0,0,0,0,0,0,0,0,0,0,0,0,0,0,0,0,0,0,0,0,0,0,0,0,0,0,0,0,0,0,0,0,0,0,0,0,0,0,0,0,-0.0791,-0.0791,0,-0.0839,-0.0839,-0.084,-0.0851,-0.0851,-0.0851,-0.085,-0.0926,-0.0928,-0.093,0,0,0,0,0,0,0,0,0,0,0,0,0,-0.0684,-0.0685,-0.0791,-0.0792,-0.0792,-0.0839,-0.0839,-0.084,-0.0851,-0.0851,-0.0851,-0.085,-0.0925,-0.0928,-0.093,0,0,0,0,0,0,0,0,0,0,0,0,0,-0.0728,-0.0686,-0.079,-0.0806,-0.0808,-0.0839,-0.0839,-0.084,-0.0851,-0.0851,-0.085,-0.085,-0.0924,-0.0927,-0.093,-0.0951,0,0,-0.094,-0.0941,0,0,0,0,0,0,0,0,-0.0725,-0.0731,-0.0803,-0.0805,-0.0807,-0.0842,-0.0829,-0.0879,-0.0851,-0.0831,-0.085,-0.085,-0.0902,-0.0907,-0.0911,-0.0954,-0.0957,-0.094,-0.0942,-0.0943,-0.0944,0,0,0,0,0,0,0,-0.0722,-0.0729,-0.0806,-0.0804,-0.0807,-0.0802,-0.0808,-0.0838,-0.0864,-0.0833,-0.0834,-0.0845,-0.0903,-0.0908,-0.0914,-0.0959,-0.094,-0.0943,-0.0945,-0.0946,-0.1051,-0.1052,0,0,0,0,0,0,-0.0725,-0.0727,-0.0805,-0.0808,-0.0769,-0.0805,-0.0811,-0.0828,-0.0864,-0.087,-0.0845,-0.0845,-0.0903,-0.091,-0.0916,-0.0956,-0.0943,-0.0946,-0.0948,-0.105,-0.1051,-0.1052,0,0,0,0,0,0,-0.0722,-0.0731,-0.0803,-0.077,-0.078,-0.0807,-0.0825,-0.0829,-0.0852,-0.0873,-0.0879,-0.0867,-0.0903,-0.0912,-0.0947,-0.0958,-0.0948,-0.095,-0.1049,-0.105,-0.1051,-0.1026,0,0,0,0,0,0,-0.0719,-0.073,-0.0751,-0.0771,-0.0782,-0.0832,-0.0826,-0.083,-0.0859,-0.0861,-0.0894,-0.09,-0.0904,-0.0942,-0.095,-0.0962,-0.0953,-0.1047,-0.1049,-0.1051,-0.1026,-0.1027,-0.1027,0,0,0,0,0,-0.0715,-0.074,-0.0751,-0.0761,-0.0807,-0.0833,-0.0838,-0.0854,-0.0861,-0.0874,-0.0889,-0.0899,-0.0959,-0.0945,-0.0954,-0.0968,-0.1047,-0.1049,-0.1051,-0.1026,-0.1026,-0.1027,0,0,0,0,0,0,-0.0712,-0.0745,-0.0757,-0.0794,-0.0818,-0.0836,-0.0855,-0.0867,-0.089,-0.0896,-0.091,-0.0917,-0.0949,-0.097,-0.0954,-0.1005,-0.1006,-0.101,-0.0984,-0.0985,-0.0986,-0.0957,-0.0955,0,0,0,0,0,-0.0721,-0.0745,-0.0774,-0.0806,-0.0819,-0.0842,-0.0858,-0.087,-0.089,-0.0901,-0.0921,-0.0945,-0.0963,-0.0983,-0.1002,-0.1037,-0.1036,-0.1054,-0.1054,-0.1055,-0.1039,-0.1062,-0.1063,-0.1059,-0.1059,-0.1059,0,0,-0.073,-0.0752,-0.0768,-0.0807,-0.0826,-0.0841,-0.0851,-0.0882,-0.0891,-0.0907,-0.0932,-0.095,-0.0973,-0.0997,-0.1015,-0.1018,-0.1054,-0.1057,-0.1057,-0.1041,-0.1065,-0.1065,-0.1065,-0.106,-0.106,-0.106,0,0,-0.0746,-0.078,-0.0798,-0.0815,-0.0848,-0.0859,-0.0873,-0.09,-0.0911,-0.0936,-0.0944,-0.0965,-0.1007,-0.1012,-0.1022,-0.1046,-0.1054,-0.1067,-0.1051,-0.1074,-0.1074,-0.1074,-0.1057,-0.1056,-0.1072,-0.1072,-0.1072,0,-0.0756,-0.0781,-0.0809,-0.0823,-0.0834,-0.0867,-0.0878,-0.0896,-0.0929,-0.0932,-0.0944,-0.0981,-0.1006,-0.1018,-0.102,-0.1045,-0.1048,-0.1041,-0.1072,-0.1072,-0.1072,-0.1056,-0.1054,-0.1071,-0.1071,-0.1071,-0.1071,0,-0.0773,-0.0794,-0.0807,-0.0831,-0.0848,-0.0867,-0.0889,-0.0907,-0.0925,-0.0935,-0.0955,-0.0979,-0.0989,-0.1015,-0.1022,-0.1039,-0.1036,-0.1064,-0.1062,-0.1071,-0.1053,-0.1052,-0.1069,-0.107,-0.107,-0.107,0,0,-0.0779,-0.0811,-0.0815,-0.0816,-0.0851,-0.086,-0.0879,-0.0894,-0.089,-0.0928,-0.0919,-0.0957,-0.096,-0.0971,-0.0992,-0.102,-0.1021,-0.1041,-0.1042,-0.1008,-0.1044,-0.0818,-0.0795,-0.1061,-0.1061,-0.1061,-0.1024,0,-0.078,-0.0796,-0.0814,-0.0823,-0.0828,-0.085,-0.0852,-0.087,-0.0886,-0.0886,-0.0916,-0.091,-0.0947,-0.0937,-0.0975,-0.1012,-0.1021,-0.1026,-0.1054,-0.1053,-0.0839,-0.0787,-0.077,-0.0715,-0.1023,-0.1023,-0.1023,0,-0.0778,-0.0787,-0.0793,-0.0795,-0.0798,-0.0798,-0.0796,-0.0803,-0.0815,-0.0816,-0.0827,-0.0846,-0.0867,-0.09,-0.0958,-0.0961,-0.0987,-0.1023,-0.1023,-0.0815,-0.0824,-0.0762,-0.0702,-0.1021,-0.1021,-0.1021,-0.1021,0,-0.0745,-0.0765,-0.0764,-0.0769,-0.0781,-0.0769,-0.0765,-0.0773,-0.0756,-0.0752,-0.0733,-0.0779,-0.0776,-0.0842,-0.089,-0.093,-0.0946,-0.1014,-0.0831,-0.0816,-0.0801,-0.0781,-0.1037,-0.1037,-0.1037,-0.1037,-0.1037,0,-0.0723,-0.0724,-0.074,-0.0735,-0.0704,-0.0724,-0.068,-0.0682,-0.0666,-0.064,-0.0677,-0.0665,-0.0766,-0.0789,-0.0857,-0.0797,-0.0911,-0.0786,-0.0778,-0.0786,-0.0766,-0.1045,-0.1046,-0.1036,-0.1036,-0.1036,-0.1037,0,-0.0684,-0.0704,-0.0696,-0.0697,-0.0683,-0.0655,-0.0604,-0.0574,-0.0564,-0.0529,-0.0515,-0.0565,-0.0573,-0.0635,-0.072,-0.0701,-0.0707,-0.0662,-0.0621,-0.0603,-0.0579,-0.0581,-0.0455,-0.0446,-0.0439,-0.0433,-0.0428,0,-0.0665,-0.0656,-0.0652,-0.0625,-0.0615,-0.0567,-0.0524,-0.0507,-0.0482,-0.0475,-0.0462,-0.0445,-0.0404,-0.0378,-0.0358,-0.0331,-0.0507,-0.0293,-0.0339,-0.0507,-0.0514,-0.0527,-0.0538,-0.0342,-0.0337,-0.0332,-0.0329,0,-0.0614,-0.0618,-0.061,-0.056,-0.0513,-0.0463,-0.0414,-0.0388,-0.0382,-0.0342,-0.0342,-0.0297,-0.0198,-0.0121,0.0006,-0.0028,-0.0285,-0.0188,-0.0418,-0.0436,-0.0381,-0.0394,-0.0413,-0.0289,-0.0293,-0.0296,-0.0298,-0.03,-0.0571,-0.055,-0.0534,-0.0488,-0.0425,-0.0378,-0.0351,-0.0305,-0.0252,-0.0131,-0.0145,0.0035,0.0067,0.0368,0.0269,0.0151,0.0138,0.0042,0.0017,-0.0009,0.0053,0.0124,0.0322,0.0322,0.0322,0.0321,0.0321,0,-0.0509,-0.0496,-0.0453,-0.041,-0.0347,-0.0318,-0.0286,-0.0224,-0.0161,0.0079,0.0224,0.0413,0.0559,0.0475,0.0407,0.04,0.0247,0.0291,0.0055,0.0023,-0.0007,0.0042,0.0314,0.0313,0.0313,0.0312,0,0,-0.0467,-0.0431,-0.0422,-0.034,-0.0296,-0.0239,-0.0226,-0.0094,0.007,0.0356,0.0571,0.0952,0.078,0.0752,0.0601,0.0432,0.0229,0.0398,0.0427,0.0138,0.0108,-0.0104,-0.0052,0,0,0,0,0]}],[{"header":{"parameterUnit":"m.s-1","parameterCategory":2,"la1":30.2991,"la2":30.254,"lo1":-89.0895,"lo2":-89.0444,"dx":0.0017,"dy":0.0017,"nx":28,"ny":28,"refTime":"2023-02-06T15:00:00:Z","depth":"4","parameterNumber":2,"parameterNumberName":"U-component_of_CURRENTS"},"data":[0,0,0,0,0,0,0,0,0,0,0,0,0,0,0,0,0,0,0,0,0,0,0,0,0,0,0,0,0,0,0,0,0,0,0,0,0,0,0,0,0,0,0,0,0,0,0,0,0,0,0,0,0,0,0,0,0,0,-0.0385,-0.0385,0,-0.0389,-0.0389,-0.0389,-0.0397,-0.0397,-0.0397,-0.0397,-0.0369,-0.0368,-0.0367,0,0,0,0,0,0,0,0,0,0,0,0,0,-0.0379,-0.0379,-0.0385,-0.0385,-0.0385,-0.0389,-0.0389,-0.0389,-0.0397,-0.0397,-0.0397,-0.0397,-0.0369,-0.0368,-0.0367,0,0,0,0,0,0,0,0,0,0,0,0,0,-0.0383,-0.0379,-0.0385,-0.0389,-0.0389,-0.0389,-0.0389,-0.0389,-0.0397,-0.0397,-0.0397,-0.0397,-0.0369,-0.0368,-0.0367,-0.0356,0,0,-0.0363,-0.0363,0,0,0,0,0,0,0,0,-0.0383,-0.0383,-0.0388,-0.0388,-0.0389,-0.0392,-0.0377,-0.0376,-0.0397,-0.0394,-0.0397,-0.0397,-0.0373,-0.0372,-0.0373,-0.0355,-0.0354,-0.0363,-0.0362,-0.0362,-0.0361,0,0,0,0,0,0,0,-0.0382,-0.0383,-0.0387,-0.0388,-0.0388,-0.0389,-0.039,-0.0377,-0.0383,-0.0395,-0.0395,-0.0395,-0.0373,-0.0375,-0.0373,-0.0353,-0.0363,-0.0362,-0.0361,-0.0361,-0.0238,-0.0236,0,0,0,0,0,0,-0.0381,-0.0383,-0.0387,-0.0387,-0.0386,-0.0389,-0.039,-0.0391,-0.0383,-0.0383,-0.0395,-0.0395,-0.0377,-0.0374,-0.0371,-0.0271,-0.0362,-0.036,-0.036,-0.024,-0.0237,-0.0235,0,0,0,0,0,0,-0.0381,-0.0381,-0.0386,-0.0385,-0.0385,-0.0389,-0.039,-0.0391,-0.0394,-0.0384,-0.0382,-0.0397,-0.0377,-0.0373,-0.0347,-0.0274,-0.036,-0.0359,-0.0243,-0.0239,-0.0236,-0.0126,0,0,0,0,0,0,-0.0381,-0.0381,-0.0387,-0.0384,-0.0385,-0.0387,-0.039,-0.0391,-0.0394,-0.0394,-0.0385,-0.0383,-0.0376,-0.0349,-0.0346,-0.0273,-0.0358,-0.0246,-0.0242,-0.0237,-0.0133,-0.0119,-0.0108,0,0,0,0,0,-0.0381,-0.0385,-0.0387,-0.0388,-0.0391,-0.0387,-0.0387,-0.0391,-0.0394,-0.0394,-0.0377,-0.0383,-0.0316,-0.0347,-0.0344,-0.0269,-0.0249,-0.0243,-0.0238,-0.0139,-0.0122,-0.0108,0,0,0,0,0,0,-0.0382,-0.0386,-0.0388,-0.0393,-0.039,-0.0388,-0.0391,-0.0391,-0.038,-0.0378,-0.0369,-0.0365,-0.0309,-0.0313,-0.0347,-0.0219,-0.0276,-0.0269,-0.0202,-0.0186,-0.0173,-0.0166,-0.0357,0,0,0,0,0,-0.0385,-0.0391,-0.039,-0.0392,-0.0392,-0.0392,-0.0392,-0.0391,-0.0381,-0.0378,-0.0358,-0.0328,-0.0283,-0.0258,-0.0236,-0.0178,-0.0208,-0.0122,-0.0109,-0.0098,-0.0089,-0.0084,-0.007,-0.0216,-0.0216,-0.0216,0,0,-0.0386,-0.0388,-0.0392,-0.0393,-0.0392,-0.0383,-0.0393,-0.039,-0.0363,-0.0374,-0.0327,-0.0297,-0.0263,-0.0188,-0.0161,-0.0181,-0.0072,-0.0091,-0.0082,-0.0079,-0.0077,-0.0063,-0.0051,-0.0212,-0.0213,-0.0214,0,0,-0.0383,-0.0391,-0.0393,-0.039,-0.0387,-0.0382,-0.0381,-0.0368,-0.0345,-0.0286,-0.0281,-0.0222,-0.0147,-0.0113,-0.0081,0.0008,-0.0016,0.0041,0.0129,0.0134,0.0146,0.0156,0.013,0.0137,0.0062,0.0062,0.0062,0,-0.0381,-0.0383,-0.0391,-0.0385,-0.0378,-0.0379,-0.0367,-0.0341,-0.0312,-0.0269,-0.0253,-0.0125,-0.0106,-0.0014,0.0047,0.0038,0.0032,0.0068,0.015,0.0159,0.0167,0.0139,0.0145,0.0068,0.0068,0.0067,0.0066,0,-0.0374,-0.0375,-0.0373,-0.0364,-0.0356,-0.0348,-0.0316,-0.0282,-0.0231,-0.0182,-0.0071,-0.0028,0.0059,0.0093,0.0118,0.0206,0.0178,0.0151,0.0107,0.0188,0.0153,0.0157,0.0077,0.0075,0.0073,0.0071,0,0,-0.0367,-0.0369,-0.0368,-0.036,-0.0344,-0.0333,-0.0275,-0.0213,-0.0151,-0.0067,0.0026,0.0148,0.0194,0.023,0.0257,0.0288,0.035,0.0279,0.0276,0.0247,0.0359,0.0291,0.0287,0.0353,0.0355,0.0356,0.0309,0,-0.0356,-0.0347,-0.0346,-0.0322,-0.0312,-0.0285,-0.0226,-0.0162,-0.0075,0.0016,0.0103,0.0205,0.0239,0.0309,0.0351,0.0343,0.037,0.0365,0.0291,0.0288,0.0212,0.0293,0.0361,0.0311,0.0312,0.0313,0.0313,0,-0.0345,-0.0341,-0.0322,-0.029,-0.028,-0.0247,-0.0151,-0.0091,0.0035,0.0116,0.0238,0.029,0.0385,0.0387,0.0431,0.0438,0.0428,0.0408,0.0404,0.0305,0.0228,0.0215,0.032,0.0319,0.0319,0.0318,0.0318,0,-0.0332,-0.032,-0.0303,-0.0295,-0.0256,-0.0207,-0.0152,-0.0036,0.0039,0.0192,0.0262,0.0367,0.0427,0.0445,0.0432,0.0459,0.0422,0.043,0.0343,0.0335,0.0357,0.0347,0.0447,0.0447,0.0447,0.0447,0.0447,0,-0.0314,-0.0303,-0.0287,-0.0274,-0.0219,-0.0175,-0.0068,0.001,0.0135,0.0212,0.0329,0.0366,0.0456,0.0441,0.0432,0.0387,0.0418,0.0371,0.0333,0.0403,0.0399,0.0359,0.0349,0.0445,0.0446,0.0446,0.0446,0,-0.0299,-0.0296,-0.0281,-0.0238,-0.0211,-0.0153,-0.003,0.0041,0.0171,0.0265,0.0315,0.0394,0.0388,0.0393,0.0381,0.0373,0.0326,0.0285,0.033,0.0291,0.0243,0.024,0.0241,0.0238,0.0236,0.0234,0.0233,0,-0.0294,-0.0285,-0.026,-0.0245,-0.0218,-0.0123,-0.0066,0.0069,0.0132,0.024,0.0251,0.0293,0.0325,0.0249,0.0257,0.0222,0.0214,0.0204,0.0292,0.0267,0.0229,0.023,0.0229,0.0229,0.0229,0.0228,0.0228,0,-0.029,-0.0286,-0.0277,-0.0245,-0.0198,-0.0145,-0.0052,-0.0008,0.0117,0.0207,0.022,0.0237,0.0206,0.0203,0.0169,0.0134,0.0237,0.0184,0.019,0.0273,0.0253,0.0218,0.022,0.022,0.0222,0.0222,0.0223,0,-0.0292,-0.0289,-0.0283,-0.0245,-0.0209,-0.0179,-0.012,-0.0062,0.0022,0.0143,0.0107,0.013,0.017,0.0146,0.0083,0.008,0.0119,0.0153,0.0162,0.017,0.0171,0.0138,0.0052,0,0,0,0,0,-0.0283,-0.0281,-0.0281,-0.0244,-0.0218,-0.0193,-0.0135,-0.0083,0.0012,0.002,0.0093,0.0059,0.006,0.0044,0.0033,0.0037,0.0095,0.0023,0.0133,0.018,0.0188,0.0197,0,0,0,0,0,0,-0.0283,-0.0279,-0.0289,-0.0259,-0.0236,-0.0198,-0.0173,-0.0121,-0.01,-0.0014,-0.0028,0.0058,0.0031,0.0067,0.0032,0.0033,0.0102,0.0045,0.0045,0.0175,0.0183,0.019,0.0202,0,0,0,0,0]},{"header":{"parameterUnit":"m.s-1","parameterCategory":2,"la1":30.2991,"la2":30.254,"lo1":-89.0895,"lo2":-89.0444,"dx":0.0017,"dy":0.0017,"nx":28,"ny":28,"refTime":"2023-02-06T15:00:00:Z","depth":"4","parameterNumber":3,"parameterNumberName":"V-component_of_CURRENTS"},"data":[0,0,0,0,0,0,0,0,0,0,0,0,0,0,0,0,0,0,0,0,0,0,0,0,0,0,0,0,0,0,0,0,0,0,0,0,0,0,0,0,0,0,0,0,0,0,0,0,0,0,0,0,0,0,0,0,0,0,0.0498,0.0498,0,0.0515,0.0515,0.0515,0.0564,0.0565,0.0566,0.0567,0.0688,0.069,0.0692,0,0,0,0,0,0,0,0,0,0,0,0,0,0.0476,0.0476,0.0498,0.0498,0.0499,0.0515,0.0515,0.0515,0.0563,0.0565,0.0566,0.0568,0.0687,0.069,0.0693,0,0,0,0,0,0,0,0,0,0,0,0,0,0.0487,0.0476,0.0498,0.0526,0.0528,0.0515,0.0515,0.0515,0.0563,0.0565,0.0567,0.0568,0.0687,0.069,0.0693,0.0678,0,0,0.0703,0.0704,0,0,0,0,0,0,0,0,0.0486,0.0488,0.0521,0.0524,0.0527,0.054,0.0551,0.0575,0.0563,0.0549,0.0567,0.0569,0.0648,0.0654,0.065,0.0684,0.0689,0.0703,0.0705,0.0706,0.0707,0,0,0,0,0,0,0,0.0486,0.0487,0.0504,0.0521,0.0525,0.0526,0.053,0.0555,0.0589,0.055,0.0554,0.0557,0.065,0.0647,0.0654,0.0691,0.0703,0.0706,0.0708,0.0709,0.0746,0.0745,0,0,0,0,0,0,0.0485,0.0486,0.0503,0.0504,0.0512,0.0525,0.0529,0.0533,0.0587,0.0596,0.0555,0.0559,0.0641,0.065,0.0659,0.0708,0.0706,0.0709,0.0711,0.0747,0.0745,0.0744,0,0,0,0,0,0,0.0485,0.0487,0.0503,0.0497,0.0499,0.0524,0.0528,0.0532,0.0556,0.059,0.0602,0.0577,0.0642,0.0654,0.0718,0.0711,0.0711,0.0714,0.0748,0.0746,0.0745,0.0766,0,0,0,0,0,0,0.0484,0.0486,0.0498,0.0496,0.0499,0.0513,0.0526,0.0531,0.0554,0.0559,0.0612,0.0623,0.0645,0.0713,0.0721,0.0715,0.0716,0.0749,0.0747,0.0745,0.0767,0.0766,0.0765,0,0,0,0,0,0.0483,0.0494,0.0499,0.0501,0.0512,0.0514,0.0515,0.0538,0.0553,0.0565,0.0613,0.0623,0.0705,0.0717,0.0726,0.0721,0.075,0.0748,0.0745,0.0767,0.0766,0.0765,0,0,0,0,0,0,0.0496,0.0499,0.0505,0.0519,0.0524,0.0523,0.0537,0.0546,0.0587,0.0608,0.0639,0.0654,0.0697,0.0702,0.0713,0.0718,0.0717,0.0716,0.073,0.0729,0.0728,0.0733,0.0719,0,0,0,0,0,0.05,0.051,0.051,0.0523,0.0526,0.0532,0.054,0.0555,0.0583,0.0602,0.0643,0.0671,0.0685,0.0709,0.0729,0.0751,0.0733,0.074,0.0739,0.0738,0.0745,0.07,0.0696,0.0737,0.0737,0.0737,0,0,0.0506,0.0512,0.0517,0.0526,0.0532,0.054,0.0543,0.0562,0.0585,0.061,0.0674,0.0685,0.0691,0.0716,0.0731,0.0729,0.0717,0.0736,0.0736,0.0742,0.0697,0.0693,0.069,0.0736,0.0736,0.0736,0,0,0.0518,0.053,0.054,0.0544,0.0559,0.0562,0.0572,0.059,0.0619,0.0672,0.0678,0.0692,0.0742,0.0729,0.0728,0.0729,0.0716,0.0722,0.0728,0.0684,0.0681,0.0678,0.0657,0.0652,0.0718,0.0718,0.0718,0,0.053,0.0539,0.0544,0.0553,0.0563,0.0574,0.0588,0.0609,0.0655,0.0677,0.0706,0.0728,0.0742,0.0726,0.0727,0.0729,0.0711,0.0739,0.0685,0.0681,0.0678,0.0657,0.0651,0.0719,0.0719,0.0719,0.0719,0,0.0539,0.0554,0.0561,0.0577,0.059,0.0603,0.0627,0.0657,0.0698,0.0718,0.0747,0.0755,0.0762,0.0746,0.0751,0.0711,0.071,0.0693,0.0694,0.0675,0.0654,0.0647,0.072,0.072,0.0719,0.0719,0,0,0.0545,0.0564,0.057,0.058,0.0606,0.0615,0.0655,0.0684,0.0708,0.0752,0.0769,0.0777,0.0775,0.0769,0.0745,0.0707,0.067,0.0696,0.0693,0.0687,0.059,0.056,0.0551,0.0645,0.0644,0.0643,0.0588,0,0.0554,0.0575,0.0587,0.0614,0.0622,0.0645,0.068,0.0713,0.0749,0.0772,0.0765,0.0788,0.0783,0.0783,0.074,0.0686,0.0652,0.0687,0.0599,0.0597,0.0582,0.0541,0.0639,0.0584,0.0582,0.0581,0.058,0,0.0557,0.0572,0.0604,0.063,0.0638,0.0676,0.0719,0.0757,0.0784,0.081,0.0812,0.0805,0.0768,0.0762,0.0673,0.0698,0.0653,0.0609,0.0606,0.0568,0.0554,0.0602,0.0568,0.0569,0.057,0.0571,0.0571,0,0.055,0.058,0.0612,0.0621,0.0659,0.0702,0.0747,0.0789,0.083,0.0847,0.0859,0.0812,0.0809,0.0729,0.0655,0.0666,0.0544,0.0543,0.0474,0.0472,0.051,0.0514,0.0474,0.0474,0.0474,0.0475,0.0475,0,0.0544,0.0565,0.0627,0.0641,0.0695,0.0738,0.0812,0.0833,0.0882,0.0908,0.0897,0.0853,0.0803,0.0725,0.0645,0.0537,0.0538,0.047,0.0447,0.0521,0.0526,0.0506,0.0511,0.0473,0.0473,0.0473,0.0474,0,0.053,0.0563,0.0595,0.0661,0.0696,0.0755,0.0872,0.0905,0.0962,0.0983,0.0993,0.0915,0.0799,0.0725,0.0589,0.0543,0.0427,0.0389,0.0484,0.0469,0.0393,0.04,0.0313,0.0311,0.031,0.0309,0.0308,0,0.0515,0.0536,0.0615,0.065,0.07,0.0803,0.0861,0.0947,0.0972,0.098,0.095,0.0878,0.0807,0.0586,0.0503,0.037,0.0353,0.0335,0.0358,0.0385,0.0372,0.0381,0.0389,0.0305,0.0305,0.0305,0.0304,0,0.0478,0.0525,0.0554,0.0638,0.0714,0.079,0.0881,0.0888,0.096,0.1014,0.0898,0.0809,0.0675,0.0524,0.0451,0.0339,0.0366,0.032,0.0323,0.0344,0.0375,0.0365,0.0375,0.0299,0.03,0.03,0.0301,0,0.0451,0.0475,0.0532,0.061,0.0696,0.0749,0.0797,0.0817,0.0857,0.0875,0.0809,0.0696,0.0661,0.0502,0.0389,0.0324,0.0311,0.0318,0.0321,0.0326,0.0348,0.039,0.0289,0,0,0,0,0,0.0424,0.0455,0.0498,0.0572,0.0658,0.0722,0.0785,0.0821,0.0874,0.0793,0.0824,0.0685,0.0541,0.0435,0.0358,0.0353,0.0297,0.0263,0.0305,0.0271,0.0277,0.0298,0,0,0,0,0,0,0.0404,0.0442,0.0474,0.0539,0.0593,0.0681,0.072,0.0743,0.0692,0.0728,0.0614,0.0683,0.0496,0.0586,0.0357,0.0339,0.0359,0.0222,0.0221,0.0268,0.0273,0.0278,0.0301,0,0,0,0,0]}]]